Total_Precipitation_Accumulation
0.33 0.70 0.97 0.85 0.78 0.78 0.74 0.73 0.75 0.64 0.57 0.60 0.55 0.49 0.54 0.57 0.61 0.54 0.55 0.54 0.45 0.40 0.44 0.42 0.36 0.39 0.43 0.54 0.64 0.80 1.16 1.60 1.79 1.69 1.67 1.71 1.77 1.74 1.63 1.60 1.57 1.61 1.61 1.61
0.39 0.49 0.39 0.43 0.49 0.60 0.69 0.75 0.76 0.66 0.48 0.48 0.48 0.42 0.43 0.49 0.51 0.47 0.44 0.47 0.41 0.37 0.35 0.33 0.30 0.34 0.39 0.56 0.72 0.83 1.12 1.57 1.77 1.88 2.00 2.20 2.37 2.24 2.09 2.07 2.02 2.08 2.09 2.24
0.34 0.30 0.24 0.35 0.52 0.63 0.68 0.71 0.71 0.64 0.50 0.44 0.43 0.45 0.41 0.46 0.41 0.39 0.38 0.39 0.35 0.29 0.27 0.28 0.28 0.33 0.37 0.50 0.64 0.77 0.97 1.27 1.62 1.87 2.14 2.42 2.64 2.61 2.48 2.31 2.28 2.34 2.39 2.53
0.33 0.27 0.27 0.35 0.44 0.54 0.71 0.48 0.44 0.44 0.58 0.60 0.45 0.68 0.49 0.47 0.43 0.38 0.38 0.38 0.36 0.30 0.29 0.33 0.31 0.33 0.37 0.46 0.56 0.74 0.95 1.18 1.41 1.63 2.03 2.46 2.74 2.84 2.74 2.64 2.60 2.55 2.56 2.61
0.31 0.25 0.28 0.33 0.34 0.41 0.53 0.41 0.41 0.43 0.53 0.50 0.35 0.49 0.48 0.40 0.42 0.37 0.34 0.33 0.33 0.31 0.32 0.36 0.37 0.41 0.47 0.50 0.57 0.72 0.89 1.11 1.34 1.56 1.89 2.27 2.53 2.74 2.88 2.72 2.59 2.60 2.63 2.66
0.27 0.20 0.22 0.28 0.31 0.34 0.41 0.44 0.44 0.46 0.53 0.58 0.29 0.41 0.54 0.38 0.34 0.35 0.31 0.28 0.29 0.32 0.38 0.43 0.53 0.59 0.61 0.57 0.62 0.73 0.86 1.02 1.17 1.29 1.49 1.70 2.04 2.27 2.60 2.60 2.53 2.65 2.63 2.55
0.31 0.26 0.22 0.24 0.31 0.34 0.41 0.63 0.83 0.84 0.81 0.55 0.23 0.38 0.52 0.38 0.30 0.31 0.32 0.29 0.30 0.35 0.41 0.50 0.64 0.73 0.76 0.68 0.64 0.70 0.87 0.95 1.03 1.11 1.19 1.32 1.55 1.69 2.04 2.37 2.35 2.26 2.31 2.36
0.35 0.35 0.22 0.22 0.28 0.32 0.34 0.55 0.87 1.00 0.88 0.57 0.38 0.55 0.59 0.43 0.35 0.31 0.30 0.33 0.38 0.42 0.48 0.66 0.84 0.90 0.90 0.81 0.75 0.80 0.93 0.99 1.01 1.04 1.06 1.14 1.23 1.30 1.46 1.68 1.80 1.82 1.87 2.09
0.35 0.31 0.20 0.20 0.21 0.22 0.30 0.36 0.42 0.62 0.59 0.63 0.59 0.67 0.60 0.40 0.38 0.38 0.40 0.45 0.56 0.65 0.70 0.83 0.99 1.07 0.99 0.88 0.81 0.85 0.96 1.07 1.05 1.08 1.12 1.17 1.16 1.14 1.23 1.25 1.39 1.58 1.62 1.67
0.37 0.35 0.23 0.22 0.23 0.22 0.22 0.28 0.44 0.66 0.85 0.89 0.72 0.73 0.71 0.58 0.54 0.50 0.54 0.60 0.72 0.83 0.91 1.00 1.14 1.19 1.07 0.93 0.85 0.87 0.95 1.06 1.23 1.35 1.30 1.26 1.30 1.32 1.51 1.52 1.38 1.36 1.52 1.58
0.48 0.49 0.30 0.26 0.24 0.24 0.26 0.36 0.51 0.69 0.72 0.99 1.12 1.02 0.80 0.72 0.71 0.73 0.78 0.82 0.87 1.00 1.02 1.01 1.12 1.19 1.10 0.91 0.84 0.81 0.86 0.96 1.10 1.15 1.20 1.17 1.23 1.32 1.57 1.77 1.70 1.51 1.49 1.51
0.46 0.63 0.45 0.30 0.27 0.28 0.35 0.46 0.68 1.04 0.99 0.91 1.11 1.10 0.78 0.71 0.74 0.76 0.77 0.76 0.80 0.91 0.91 0.96 1.02 0.98 0.90 0.77 0.70 0.69 0.71 0.82 0.95 0.96 1.02 1.09 1.10 1.19 1.30 1.41 1.43 1.34 1.24 1.20
0.60 0.83 0.81 0.66 0.61 0.47 0.54 0.56 0.65 0.85 0.97 1.00 1.14 1.11 0.74 0.67 0.61 0.63 0.67 0.70 0.71 0.71 0.71 0.72 0.76 0.74 0.73 0.74 0.71 0.66 0.67 0.76 0.85 0.91 0.99 1.08 1.06 1.05 1.06 1.09 1.03 1.05 1.03 1.08
0.63 0.71 0.79 0.84 0.79 0.74 0.71 0.60 0.56 0.79 1.08 0.99 0.94 0.89 0.71 0.63 0.59 0.61 0.63 0.65 0.67 0.60 0.52 0.54 0.57 0.61 0.67 0.70 0.72 0.69 0.64 0.72 0.83 0.99 1.08 1.15 1.14 1.13 1.11 1.09 1.05 1.04 1.03 1.07
0.51 0.52 0.41 0.38 0.39 0.52 0.55 0.47 0.48 0.58 0.68 0.84 0.79 0.74 0.61 0.58 0.63 0.66 0.64 0.59 0.55 0.48 0.41 0.42 0.44 0.50 0.52 0.56 0.60 0.64 0.61 0.66 0.74 0.88 1.01 1.08 1.15 1.19 1.12 1.01 0.96 1.00 0.97 0.95
0.39 0.43 0.34 0.28 0.28 0.37 0.44 0.42 0.43 0.44 0.48 0.59 0.64 0.63 0.49 0.46 0.46 0.48 0.46 0.40 0.41 0.42 0.35 0.32 0.34 0.37 0.39 0.40 0.44 0.45 0.54 0.70 0.74 0.79 0.90 1.10 1.18 1.11 1.03 0.93 0.90 0.90 0.87 0.85
0.36 0.47 0.55 0.43 0.33 0.38 0.61 0.57 0.57 0.59 0.53 0.54 0.48 0.39 0.26 0.26 0.28 0.33 0.34 0.33 0.37 0.36 0.31 0.29 0.30 0.31 0.32 0.35 0.42 0.47 0.55 0.66 0.70 0.75 0.90 1.10 1.12 1.04 0.96 0.97 0.97 0.91 0.87 0.88
0.30 0.49 0.67 0.53 0.52 0.82 0.93 0.65 0.62 0.59 0.39 0.25 0.19 0.17 0.16 0.22 0.21 0.21 0.22 0.25 0.29 0.28 0.24 0.24 0.24 0.25 0.27 0.29 0.35 0.41 0.47 0.51 0.57 0.66 0.78 0.95 0.99 0.97 0.99 0.98 0.94 0.86 0.79 0.75
0.29 0.51 0.74 0.63 0.64 0.78 0.71 0.46 0.39 0.40 0.29 0.13 0.11 0.12 0.14 0.17 0.16 0.13 0.15 0.16 0.17 0.17 0.14 0.15 0.17 0.20 0.22 0.20 0.23 0.28 0.30 0.34 0.40 0.51 0.63 0.74 0.76 0.82 0.85 0.83 0.84 0.79 0.70 0.69
0.43 0.57 0.84 0.76 0.87 0.82 0.43 0.25 0.23 0.33 0.41 0.16 0.12 0.12 0.10 0.11 0.15 0.11 0.08 0.09 0.10 0.10 0.09 0.08 0.10 0.15 0.19 0.17 0.17 0.19 0.23 0.27 0.31 0.42 0.53 0.62 0.66 0.67 0.68 0.75 0.78 0.77 0.72 0.68
0.47 0.59 0.70 0.73 0.93 0.75 0.35 0.23 0.26 0.45 0.52 0.26 0.16 0.12 0.09 0.09 0.09 0.07 0.07 0.07 0.07 0.07 0.07 0.07 0.08 0.13 0.17 0.18 0.17 0.15 0.18 0.22 0.27 0.32 0.42 0.50 0.56 0.62 0.70 0.78 0.80 0.83 0.79 0.74
0.56 0.61 0.60 0.68 0.86 0.78 0.38 0.35 0.44 0.45 0.33 0.25 0.18 0.14 0.10 0.07 0.05 0.04 0.05 0.05 0.06 0.06 0.06 0.06 0.08 0.13 0.15 0.17 0.17 0.15 0.16 0.20 0.22 0.23 0.30 0.42 0.52 0.59 0.69 0.80 0.85 0.83 0.83 0.82
0.58 0.63 0.67 0.76 0.85 0.58 0.40 0.43 0.40 0.34 0.31 0.22 0.15 0.12 0.11 0.08 0.05 0.03 0.04 0.05 0.05 0.06 0.06 0.06 0.08 0.11 0.11 0.13 0.15 0.15 0.17 0.18 0.17 0.19 0.23 0.30 0.37 0.41 0.51 0.62 0.74 0.79 0.78 0.77
0.41 0.40 0.51 0.61 0.54 0.36 0.34 0.35 0.29 0.26 0.23 0.17 0.15 0.11 0.10 0.08 0.06 0.05 0.04 0.04 0.04 0.06 0.06 0.08 0.10 0.12 0.11 0.11 0.13 0.14 0.16 0.16 0.17 0.20 0.23 0.25 0.27 0.29 0.35 0.49 0.56 0.62 0.66 0.70
0.36 0.42 0.48 0.55 0.50 0.36 0.29 0.30 0.28 0.25 0.18 0.15 0.17 0.16 0.14 0.11 0.08 0.05 0.04 0.04 0.04 0.05 0.05 0.07 0.10 0.11 0.12 0.11 0.11 0.14 0.15 0.16 0.17 0.19 0.21 0.21 0.23 0.27 0.31 0.38 0.50 0.57 0.63 0.67
0.30 0.40 0.55 0.60 0.52 0.47 0.32 0.26 0.23 0.21 0.17 0.15 0.15 0.17 0.19 0.19 0.16 0.10 0.06 0.05 0.06 0.06 0.07 0.09 0.10 0.10 0.11 0.11 0.11 0.14 0.16 0.17 0.22 0.24 0.22 0.22 0.23 0.27 0.29 0.34 0.42 0.47 0.49 0.51